sat.trackr.live / text

‹ back to catalog

HODOYOSHI-4

NORAD 40011 · 2014-033B

PAYLOAD ACTIVE UNKNOWN

§ Identity

Operator
Country
JPN
Launch date
2014-06-19
Launch site
DLS
Launch vehicle
Mass (kg)
RCS (m²)
0.47

Purposes: earth_obs

External: N2YO · Heavens-Above · Gunter

§ Orbital elements

Epoch: 2026-09-14T22:16:58.384128Z

Period
96.75 min
Inclination
97.5474°
Eccentricity
0.0023998
Mean motion
14.88309837 rev/d
Perigee alt
586.5 km
Apogee alt
620.0 km
Semi-major
6,981.4 km
B*
1.2778e-4
RAAN
78.4519°
Arg perigee
11.6651°
Mean anomaly
348.5118°
Rev number
66,215

§ Raw data

HODOYOSHI-41 40011U 14033B   26257.92845352  .00001135  00000+0  12778-3 0  99942 40011  97.5474  78.4519 0023998  11.6651 348.5118 14.88309837662150

JSON: /api/v1/satellites/40011 · /tle

For live sub-satellite position, see the globe view (requires WebGL).

§ Visibility from observer

Set your observer location to see the next 7 days of passes ≥ 10°. The values pass through the URL so the page stays shareable.

No JS? Fill the form by hand. The geolocation button needs JavaScript.

§ Radio — SatNOGS DB

ModeDescriptionDownlinkUplink
FM Mode S Down 2.264 GHz

1 transmitter · refreshed weekly from db.satnogs.org